#timestamp,LO_Frequency,Hit 
1504206015.3,286046998.3,N
1504206035.1,286047001.0,N
1504206036.0,286047001.0,N
1504206055.8,286046998.1,N
1504206075.7,286046998.7,N
1504206095.5,286046998.5,N
1504206115.3,286047000.7,N
1504206135.2,286046998.8,N
1504206155.9,286046997.7,N
1504206175.7,286046997.9,N
1504206195.5,286046998.9,N
1504206215.4,286046998.1,N
1504206235.6,286047002.5,N
1504206255.4,286047004.3,N
1504206275.2,286047004.3,N
1504206295.1,286047002.2,N
1504206296.0,286047002.2,N
1504206315.8,286047002.6,N
1504206335.6,286047003.9,N
1504206355.5,286047003.2,N
1504206375.3,286046999.7,N
1504206395.1,286047000.7,N
1504206415.9,286047002.6,N
1504206435.7,286047007.2,P
1504206455.6,286047003.8,N
1504206475.4,286047001.9,N
1504206495.2,286047000.1,N
1504206515.0,286047000.1,N
1504206515.9,286047000.1,N
1504206535.8,286047001.8,N
1504206555.6,286047005.8,N
1504206575.4,286047005.1,N
1504206595.3,286047004.3,N
1504206615.1,286047000.2,N
1504206616.0,286047000.2,N
1504206635.8,286046999.5,N
1504206655.7,286046999.4,N
1504206675.5,286047000.1,N
1504206695.3,286046998.5,N
1504206715.2,286047000.6,N
1504206735.9,286046998.1,N
1504206755.7,286047000.1,N
1504206775.5,286047001.1,N
1504206795.4,286047004.1,N
1504206815.2,286047002.6,N
1504206835.0,286047001.4,N
1504206835.9,286047001.4,N
1504206855.8,286047002.7,N
1504206875.6,286047000.4,N
1504206895.4,286047005.3,N
1504206915.3,286047003.2,N
1504206935.1,286047005.8,N
1504206955.8,286047005.2,N
1504206975.7,286047008.9,P
1504206995.5,286047005.6,N
1504207015.3,286047004.3,N
1504207035.2,286047003.7,N
1504207055.9,286047002.9,N
1504207075.7,286047003.4,N
1504207095.6,286046999.9,N
1504207115.4,286047000.3,N
1504207135.2,286046998.9,N
1504207155.1,286046998.5,N
1504207156.0,286046998.5,N
1504207175.8,286046999.4,N
1504207195.6,286046999.1,N
1504207215.5,286046997.8,N
1504207235.3,286046997.8,N
1504207255.1,286046997.9,N
1504207275.8,286046997.8,N
1504207295.7,286046996.8,N
1504207315.5,286046998.7,N
1504207335.3,286046996.7,N
1504207355.2,286046995.7,N
1504207375.0,286046994.9,N
1504207395.2,286046997.5,N
1504207415.1,286046995.2,N
1504207416.0,286046995.2,N
1504207435.8,286046997.4,N
1504207455.6,286046994.9,N
1504207475.5,286046995.2,N
1504207495.3,286046997.4,N
1504207515.1,286046996.6,N
1504207535.9,286046996.7,N
1504207555.7,286046995.9,N
1504207575.5,286046993.9,N
1504207595.4,286046994.6,N
1504207615.2,286046992.7,P
1504207635.0,286046991.7,P
1504207635.9,286046991.7,P
1504207655.8,286046994.6,N
1504207675.6,286046992.3,P
1504207695.4,286046999.3,N
1504207715.3,286047000.2,N
1504207735.1,286047003.8,N
1504207755.8,286047001.8,N
1504207775.7,286047003.9,N
1504207795.5,286047003.9,N
1504207815.3,286047002.9,N
1504207835.2,286047004.9,N
1504207855.9,286047008.8,N
1504207875.7,286047008.7,N
1504207895.6,286047008.9,N
1504207915.4,286047009.2,N
1504207935.2,286047006.1,N
1504207955.1,286047009.0,N
1504207956.0,286047009.0,N
1504207975.8,286047003.1,N
1504207995.6,286047007.2,N
1504208015.5,286047005.0,N
1504208035.3,286047007.9,N
1504208055.1,286047008.0,N
1504208075.5,286047008.2,N
1504208095.3,286047010.4,N
1504208115.1,286047013.8,N
1504208135.9,286047010.6,N
1504208155.7,286047010.5,N
1504208175.5,286047008.6,N
1504208195.4,286047009.3,N
1504208215.2,286047007.9,N
1504208235.0,286047012.2,N
1504208235.9,286047012.2,N
1504208255.8,286047011.3,P
1504208275.6,286047003.5,N
1504208295.4,286047002.4,N
1504208315.3,286047002.1,N
1504208335.1,286047004.2,N
1504208355.8,286047004.3,N
1504208375.7,286047005.2,N
1504208395.5,286047007.7,N
1504208415.3,286047007.3,N
1504208435.2,286047008.6,P
1504208455.9,286047003.2,N
1504208475.7,286047001.8,N
1504208495.6,286047004.4,N
1504208515.4,286047003.2,N
1504208535.2,286047004.8,N
1504208555.1,286047004.2,N
1504208556.0,286047004.2,N
1504208575.8,286047004.4,N
1504208595.6,286047003.4,N
1504208615.5,286047003.9,N
1504208635.8,286046999.9,N
1504208655.6,286046998.6,N
1504208675.5,286046999.7,N
1504208695.3,286047002.8,N
1504208715.1,286047006.0,N
1504208735.9,286047001.3,N
1504208755.7,286047000.0,N
1504208775.5,286047004.0,N
1504208795.3,286047006.7,N
1504208815.2,286047004.9,N
1504208835.0,286047008.3,P
1504208835.9,286047008.3,P
1504208855.1,286047003.6,N
1504208856.0,286047003.6,N
1504208875.8,286047006.3,N
1504208895.6,286047003.3,N
1504208915.5,286047007.5,P
1504208935.3,286046996.6,P
1504208955.1,286046996.1,N
1504208975.9,286046991.7,N
1504208995.7,286046992.4,N
1504209015.5,286046992.3,N
1504209035.4,286046988.6,N
1504209055.2,286046987.1,N
1504209075.0,286046989.9,N
1504209075.9,286046989.9,N
1504209095.8,286046987.0,N
1504209115.6,286046987.9,N
1504209135.4,286046985.9,N
1504209155.2,286046988.4,N
1504209175.1,286046989.5,N
1504209176.0,286046989.5,N
1504209195.8,286046989.1,N
1504209215.6,286046987.9,N
1504209235.5,286046986.8,N
1504209255.3,286046982.5,P
1504209275.1,286046993.0,N
1504209295.9,286046991.9,N
1504209315.7,286046993.8,N
1504209335.5,286046995.1,N
1504209355.4,286046997.3,N
1504209375.2,286046998.5,N
1504209395.0,286046998.3,N
1504209395.9,286046998.3,N
1504209415.8,286046999.3,N
1504209435.6,286046996.9,N
1504209455.4,286046995.4,N
1504209475.3,286046997.4,N
1504209495.1,286046999.1,N
1504209496.0,286046999.1,N
1504209515.8,286046996.5,N
1504209535.7,286047000.2,N
1504209555.5,286046998.2,N
1504209575.3,286046999.8,N
1504209595.1,286047001.0,N
